Regional Weather Roundup
Issued by NWS

Home | Current Version | Previous Version | Graphics & Text | Print | Product List | Glossary On
Versions: 1 2 3 4 5 6 7 8 9 10 11 12 13 14 15 16 17 18 19 20 21 22 23 24 25 26 27 28 29 30 31 32 33 34 35 36 37 38 39 40 41 42 43 44 45 46 47 48 49 50
000
ASUS45 KSLC 242010
RWRUT

UTAH REGIONAL WEATHER ROUNDUP
NATIONAL WEATHER SERVICE SALT LAKE CITY UT
200 PM MDT FRI APR 24 2015

UTZ001>011-023>025-242100-

NORTHERN UTAH

CITY           SKY/WX    TMP DP  RH WIND       PRES   REMARKS
BRIGHAM CITY   PTSUNNY   63  32  31 SW10      29.67F
HILL AFB       PTSUNNY   63  36  36 S9        29.68F
LOGAN          CLOUDY    61  34  36 SW10      29.66F
OGDEN          PTSUNNY   64  33  31 SW10G20   29.67F
PROVO AIRPORT  PTSUNNY   63  32  31 S6        29.69F
SALT LAKE CITY LGT RAIN  63  37  38 SE12G23   29.65F
VERNAL         MOSUNNY   66  28  24 SW13      29.69F
WENDOVER       CLOUDY    63  34  34 SW18      29.68S
HEBER CITY     PTSUNNY   61  28  29 SW17G26   29.72S
WEST JORDAN    MOSUNNY   66  37  34 SE18G25   29.67F

$$

UTZ012>022-026-027-242100-

SOUTHERN/CENTRAL UTAH

CITY           SKY/WX    TMP DP  RH WIND       PRES   REMARKS
BLANDING       PTSUNNY   59  25  27 SW10G18   29.88F
BRYCE CANYON   LGT RAIN  46  33  60 NW10      29.89F
CEDAR CITY     PTSUNNY   62  27  26 SW23G37   29.81F
DELTA          PTSUNNY   60  38  43 SW29G36   29.71F
HANKSVILLE     MOSUNNY   72  21  15 SW16G24   29.73S
MILFORD        LGT RAIN  52  31  44 SW31G37   29.80R
MOAB/CYNLANDS  MOSUNNY   69  17  13 W15G23    29.69F
PRICE          PTSUNNY   59  27  29 E8        29.75F
ST GEORGE      MOCLDY    72  34  25 W9G21     29.79F
KANAB          PTSUNNY   55  39  54 S13       29.89F

$$

REGIONAL REPORTS     COLORADO/ARIZONA

CITY           SKY/WX    TMP DP  RH WIND       PRES   REMARKS
CRAIG, CO      PTSUNNY   60  27  28 SW9G16    29.71F
GRAND JUNCTION CLOUDY    58  33  39 W9        29.73S
RIFLE          CLOUDY    51  33  50 NW25G39   29.77R THUNDER
MONTROSE       CLOUDY    55  28  35 SW17G30   29.80F
CORTEZ         CLOUDY    58  22  24 W15G24    29.83F
PAGE, AZ       PTSUNNY   67  28  23 S8        29.80F
GRAND CANYON   LGT RAIN  44  37  76 NW10G16   29.95S
KINGMAN        MOSUNNY   69  38  32 SW21G35   29.89
FLAGSTAFF      LGT RAIN  38  37  97 SW12G23   30.00S FOG     WCI  30

$$

REGIONAL REPORTS    NEVADA/IDAHO/WYOMING

CITY           SKY/WX    TMP DP  RH WIND       PRES   REMARKS
LAS VEGAS, NV  MOSUNNY   75  39  27 SW20G33   29.72F
ELY            TSTM      44  37  76 SW5       29.81F
ELKO           CLOUDY    48  40  73 SW13      29.76S
POCATELLO, ID  PTSUNNY   57  39  51 W24       29.69F
BURLEY         LGT RAIN  46  40  79 W15G21    29.73S
EVANSTON, WY   CLOUDY    53  30  41 SW16      29.73F
ROCK SPRINGS   PTSUNNY   55  28  35 NW16      29.71F
KEMMERER       LGT RAIN  41  36  81 NW6       29.77R

$$



USA.gov is the U.S. government's official web portal to all federal, state and local government web resources and services.